| time (UTC) | temp C | wind direction | speed KPH | gust KPH | rain 1hr cm | rain 24hr cm | rain mn cm | humidity % | barometer mb |
| 20260508073038 | 3 | 108 | 1.6 | 4.8 | 0.00 | 0.00 | 0.00 | 96 | 1016.3 |
| 20260508072533 | 3 | 108 | 1.6 | 1.6 | 0.00 | 0.00 | 0.00 | 96 | 1016.1 |
| 20260508072031 | 3 | 108 | 3.2 | 3.2 | 0.00 | 0.00 | 0.00 | 95 | 1016.3 |
| 20260508071528 | 3 | 108 | 1.6 | 1.6 | 0.00 | 0.00 | 0.00 | 95 | 1016.3 |
| 20260508071026 | 3 | 108 | 0.0 | 0.0 | 0.00 | 0.00 | 0.00 | 95 | 1016.4 |
| 20260508070524 | 3 | 108 | 1.6 | 1.6 | 0.00 | 0.00 | 0.00 | 95 | 1016.3 |
| 20260508070022 | 3 | 108 | 3.2 | 3.2 | 0.00 | 0.00 | 0.00 | 95 | 1016.3 |
| 20260508065519 | 3 | 108 | 1.6 | 3.2 | 0.00 | 0.00 | 0.00 | 95 | 1016.4 |
| 20260508065017 | 3 | 108 | 1.6 | 3.2 | 0.00 | 0.00 | 0.00 | 95 | 1016.3 |
| 20260508064514 | 3 | 108 | 0.0 | 1.6 | 0.00 | 0.00 | 0.00 | 96 | 1016.4 |
| 20260508064012 | 3 | 108 | 3.2 | 3.2 | 0.00 | 0.00 | 0.00 | 96 | 1016.3 |
| 20260508063509 | 2 | 37 | 0.0 | 0.0 | 0.00 | 0.00 | 0.00 | 95 | 1016.3 |
| 20260508063007 | 3 | 37 | 0.0 | 0.0 | 0.00 | 0.00 | 0.00 | 95 | 1016.4 |
| 20260508062504 | 3 | 37 | 0.0 | 0.0 | 0.00 | 0.00 | 0.00 | 95 | 1016.3 |
| 20260508062000 | 3 | 37 | 0.0 | 0.0 | 0.00 | 0.00 | 0.00 | 95 | 1016.3 |
| 20260508061459 | 3 | 37 | 0.0 | 0.0 | 0.00 | 0.00 | 0.00 | 95 | 1016.4 |
| 20260508060955 | 3 | 37 | 0.0 | 0.0 | 0.00 | 0.00 | 0.00 | 95 | 1016.0 |
| 20260508060452 | 3 | 37 | 0.0 | 0.0 | 0.00 | 0.00 | 0.00 | 95 | 1016.0 |
| 20260508055948 | 3 | 37 | 0.0 | 0.0 | 0.00 | 0.00 | 0.00 | 95 | 1016.0 |
| 20260508055445 | 3 | 37 | 0.0 | 1.6 | 0.00 | 0.00 | 0.00 | 95 | 1016.3 |
| 20260508054942 | 3 | 38 | 3.2 | 3.2 | 0.00 | 0.00 | 0.00 | 94 | 1016.1 |
| 20260508054439 | 3 | 37 | 1.6 | 1.6 | 0.00 | 0.00 | 0.00 | 94 | 1016.3 |
| 20260508053935 | 3 | 21 | 1.6 | 3.2 | 0.00 | 0.00 | 0.00 | 93 | 1016.5 |
| 20260508053433 | 3 | 296 | 0.0 | 0.0 | 0.00 | 0.00 | 0.00 | 93 | 1016.1 |
| 20260508052931 | 3 | 296 | 0.0 | 0.0 | 0.00 | 0.00 | 0.00 | 92 | 1016.3 |
| 20260508052428 | 3 | 296 | 0.0 | 0.0 | 0.00 | 0.00 | 0.00 | 92 | 1016.5 |
| 20260508051924 | 3 | 296 | 0.0 | 0.0 | 0.00 | 0.00 | 0.00 | 92 | 1016.6 |
| 20260508051420 | 3 | 296 | 0.0 | 0.0 | 0.00 | 0.00 | 0.00 | 91 | 1016.5 |
| 20260508050916 | 3 | 296 | 0.0 | 0.0 | 0.00 | 0.00 | 0.00 | 90 | 1016.4 |
| 20260508050413 | 3 | 296 | 0.0 | 0.0 | 0.00 | 0.00 | 0.00 | 90 | 1016.5 |
| 20260508045909 | 4 | 296 | 0.0 | 0.0 | 0.00 | 0.00 | 0.00 | 89 | 1016.5 |
| 20260508045407 | 3 | 296 | 0.0 | 0.0 | 0.00 | 0.00 | 0.00 | 88 | 1016.4 |
| 20260508044904 | 4 | 296 | 0.0 | 0.0 | 0.00 | 0.00 | 0.00 | 86 | 1016.3 |
| 20260508044401 | 4 | 296 | 0.0 | 0.0 | 0.00 | 0.00 | 0.00 | 86 | 1016.4 |
| 20260508043856 | 5 | 296 | 0.0 | 0.0 | 0.00 | 0.00 | 0.00 | 85 | 1016.5 |
| 20260508043354 | 5 | 296 | 1.6 | 1.6 | 0.00 | 0.00 | 0.00 | 84 | 1016.3 |
| 20260508042850 | 5 | 296 | 0.0 | 1.6 | 0.00 | 0.00 | 0.00 | 84 | 1016.3 |
| 20260508042348 | 5 | 296 | 0.0 | 0.0 | 0.00 | 0.00 | 0.00 | 83 | 1016.3 |
| 20260508041845 | 5 | 294 | 0.0 | 0.0 | 0.00 | 0.00 | 0.00 | 83 | 1016.3 |
| 20260508041341 | 5 | 294 | 0.0 | 0.0 | 0.00 | 0.00 | 0.00 | 83 | 1016.3 |
| 20260508040838 | 5 | 294 | 0.0 | 0.0 | 0.00 | 0.00 | 0.00 | 83 | 1016.1 |
| 20260508040335 | 5 | 294 | 0.0 | 0.0 | 0.00 | 0.00 | 0.00 | 82 | 1016.1 |
| 20260508035832 | 5 | 294 | 0.0 | 0.0 | 0.00 | 0.05 | 0.05 | 83 | 1016.0 |
| 20260508035330 | 5 | 294 | 0.0 | 0.0 | 0.00 | 0.05 | 0.05 | 82 | 1015.9 |
| 20260508034826 | 5 | 294 | 0.0 | 0.0 | 0.00 | 0.05 | 0.05 | 81 | 1015.9 |
| 20260508034324 | 5 | 294 | 0.0 | 0.0 | 0.00 | 0.05 | 0.05 | 81 | 1015.8 |
| 20260508033820 | 5 | 294 | 0.0 | 1.6 | 0.00 | 0.05 | 0.05 | 81 | 1015.9 |
| 20260508033319 | 6 | 294 | 0.0 | 1.6 | 0.00 | 0.05 | 0.05 | 79 | 1015.9 |
| 20260508032816 | 6 | 294 | 0.0 | 0.0 | 0.00 | 0.05 | 0.05 | 76 | 1015.7 |
| 20260508032313 | 6 | 294 | 0.0 | 0.0 | 0.00 | 0.05 | 0.05 | 72 | 1015.6 |
| 20260508031809 | 6 | 294 | 0.0 | 0.0 | 0.00 | 0.05 | 0.05 | 71 | 1015.6 |
| 20260508031306 | 7 | 294 | 0.0 | 0.0 | 0.00 | 0.05 | 0.05 | 69 | 1015.6 |
| 20260508030802 | 7 | 294 | 0.0 | 0.0 | 0.00 | 0.05 | 0.05 | 69 | 1015.6 |
| 20260508030300 | 7 | 294 | 0.0 | 0.0 | 0.00 | 0.05 | 0.05 | 68 | 1015.6 |
| 20260508025756 | 8 | 294 | 0.0 | 1.6 | 0.00 | 0.05 | 0.05 | 67 | 1015.4 |
| 20260508025254 | 8 | 294 | 0.0 | 3.2 | 0.00 | 0.05 | 0.05 | 62 | 1015.4 |
| 20260508024749 | 8 | 303 | 0.0 | 0.0 | 0.00 | 0.05 | 0.05 | 61 | 1015.5 |
| 20260508024246 | 7 | 296 | 1.6 | 3.2 | 0.00 | 0.05 | 0.05 | 68 | 1015.4 |
| 20260508023743 | 7 | 298 | 0.0 | 1.6 | 0.00 | 0.05 | 0.05 | 72 | 1015.3 |
| 20260508023241 | 7 | 298 | 0.0 | 1.6 | 0.00 | 0.05 | 0.05 | 73 | 1015.2 |
| 20260508022736 | 7 | 298 | 0.0 | 0.0 | 0.00 | 0.05 | 0.05 | 73 | 1015.3 |
| 20260508022233 | 7 | 298 | 0.0 | 0.0 | 0.00 | 0.05 | 0.05 | 69 | 1015.2 |
| 20260508021730 | 7 | 298 | 0.0 | 0.0 | 0.00 | 0.05 | 0.05 | 65 | 1015.0 |
| 20260508021225 | 8 | 298 | 0.0 | 0.0 | 0.00 | 0.05 | 0.05 | 63 | 1014.9 |
| 20260508020723 | 8 | 298 | 0.0 | 1.6 | 0.00 | 0.05 | 0.05 | 64 | 1014.7 |
| 20260508020220 | 8 | 298 | 0.0 | 1.6 | 0.00 | 0.05 | 0.05 | 66 | 1014.9 |
| 20260508015717 | 9 | 298 | 1.6 | 3.2 | 0.00 | 0.05 | 0.05 | 61 | 1015.0 |
| 20260508015214 | 10 | 298 | 0.0 | 3.2 | 0.00 | 0.05 | 0.05 | 58 | 1014.6 |
| 20260508014711 | 10 | 301 | 0.0 | 1.6 | 0.00 | 0.05 | 0.05 | 51 | 1014.6 |
| 20260508014208 | 10 | 301 | 0.0 | 1.6 | 0.00 | 0.05 | 0.05 | 53 | 1014.7 |
| 20260508013703 | 11 | 301 | 0.0 | 0.0 | 0.00 | 0.05 | 0.05 | 48 | 1014.7 |
| 20260508013200 | 11 | 301 | 1.6 | 4.8 | 0.00 | 0.05 | 0.05 | 47 | 1014.6 |
| 20260508012658 | 11 | 301 | 1.6 | 3.2 | 0.00 | 0.05 | 0.05 | 48 | 1014.3 |
| 20260508012154 | 11 | 303 | 1.6 | 6.4 | 0.00 | 0.05 | 0.05 | 46 | 1014.5 |
| 20260508011653 | 11 | 287 | 0.0 | 1.6 | 0.00 | 0.05 | 0.05 | 50 | 1014.1 |
| 20260508011150 | 11 | 287 | 1.6 | 1.6 | 0.00 | 0.05 | 0.05 | 50 | 1014.2 |
| 20260508010647 | 11 | 290 | 1.6 | 12.9 | 0.00 | 0.05 | 0.05 | 50 | 1014.2 |
| 20260508010145 | 12 | 306 | 1.6 | 3.2 | 0.00 | 0.05 | 0.05 | 51 | 1014.2 |
| 20260508005642 | 12 | 306 | 1.6 | 3.2 | 0.00 | 0.05 | 0.05 | 46 | 1014.1 |
| 20260508005138 | 12 | 292 | 3.2 | 4.8 | 0.00 | 0.05 | 0.05 | 48 | 1014.1 |
| 20260508004634 | 12 | 292 | 3.2 | 4.8 | 0.00 | 0.05 | 0.05 | 48 | 1014.1 |
| 20260508004130 | 12 | 280 | 3.2 | 6.4 | 0.00 | 0.05 | 0.05 | 46 | 1013.9 |
| 20260508003627 | 12 | 275 | 3.2 | 3.2 | 0.00 | 0.05 | 0.05 | 47 | 1013.8 |
| 20260508003125 | 12 | 275 | 1.6 | 1.6 | 0.00 | 0.05 | 0.05 | 47 | 1013.8 |
| 20260508002621 | 13 | 275 | 3.2 | 3.2 | 0.00 | 0.05 | 0.05 | 46 | 1013.7 |
| 20260508002119 | 13 | 275 | 3.2 | 6.4 | 0.00 | 0.05 | 0.05 | 46 | 1013.7 |
| 20260508001614 | 13 | 275 | 1.6 | 6.4 | 0.00 | 0.05 | 0.05 | 45 | 1013.5 |
| 20260508001110 | 13 | 275 | 3.2 | 3.2 | 0.00 | 0.05 | 0.05 | 48 | 1013.4 |
| 20260508000606 | 13 | 275 | 1.6 | 4.8 | 0.00 | 0.05 | 0.05 | 47 | 1013.2 |
| 20260508000104 | 13 | 274 | 0.0 | 4.8 | 0.00 | 0.05 | 0.05 | 46 | 1013.1 |
| 20260507235600 | 13 | 275 | 0.0 | 1.6 | 0.00 | 0.05 | 0.05 | 48 | 1013.2 |
| 20260507235058 | 14 | 275 | 1.6 | 3.2 | 0.00 | 0.05 | 0.05 | 44 | 1013.1 |
| 20260507234554 | 15 | 286 | 1.6 | 3.2 | 0.00 | 0.05 | 0.05 | 44 | 1013.2 |
| 20260507234050 | 15 | 294 | 1.6 | 6.4 | 0.00 | 0.05 | 0.05 | 43 | 1013.1 |
| 20260507233547 | 14 | 272 | 3.2 | 6.4 | 0.00 | 0.05 | 0.05 | 43 | 1013.1 |
| 20260507233046 | 14 | 322 | 8.0 | 12.9 | 0.00 | 0.05 | 0.05 | 43 | 1013.1 |
| 20260507232542 | 14 | 292 | 4.8 | 11.3 | 0.00 | 0.05 | 0.05 | 43 | 1013.1 |
| 20260507232039 | 14 | 283 | 8.0 | 11.3 | 0.00 | 0.05 | 0.05 | 43 | 1013.0 |
| 20260507231536 | 14 | 287 | 4.8 | 11.3 | 0.00 | 0.05 | 0.05 | 44 | 1012.8 |
| 20260507231033 | 15 | 274 | 4.8 | 12.9 | 0.00 | 0.05 | 0.05 | 43 | 1012.9 |
| 20260507230530 | 15 | 244 | 4.8 | 9.7 | 0.00 | 0.05 | 0.05 | 43 | 1012.9 |
| 20260507230026 | 15 | 273 | 4.8 | 9.7 | 0.00 | 0.05 | 0.05 | 42 | 1012.9 |
| 20260507225521 | 15 | 288 | 9.7 | 11.3 | 0.00 | 0.05 | 0.05 | 43 | 1012.8 |
| 20260507225018 | 15 | 248 | 6.4 | 9.7 | 0.00 | 0.05 | 0.05 | 43 | 1012.7 |
| 20260507224513 | 15 | 268 | 4.8 | 9.7 | 0.00 | 0.05 | 0.05 | 43 | 1012.5 |
| 20260507224010 | 15 | 256 | 3.2 | 4.8 | 0.00 | 0.05 | 0.05 | 46 | 1012.6 |
| 20260507223506 | 15 | 285 | 6.4 | 11.3 | 0.00 | 0.05 | 0.05 | 43 | 1012.7 |
| 20260507223004 | 15 | 267 | 9.7 | 12.9 | 0.00 | 0.05 | 0.05 | 42 | 1012.7 |
| 20260507222501 | 16 | 321 | 9.7 | 22.5 | 0.00 | 0.05 | 0.05 | 41 | 1012.6 |
| 20260507221957 | 16 | 232 | 4.8 | 9.7 | 0.00 | 0.05 | 0.05 | 44 | 1012.5 |
| 20260507221453 | 16 | 246 | 3.2 | 6.4 | 0.00 | 0.05 | 0.05 | 45 | 1012.5 |
| 20260507220950 | 15 | 257 | 4.8 | 11.3 | 0.00 | 0.05 | 0.05 | 48 | 1012.7 |
| 20260507220448 | 15 | 233 | 4.8 | 16.1 | 0.00 | 0.05 | 0.05 | 44 | 1012.5 |
| 20260507215944 | 16 | 270 | 6.4 | 9.7 | 0.00 | 0.05 | 0.05 | 44 | 1012.4 |
| 20260507215441 | 16 | 256 | 6.4 | 12.9 | 0.00 | 0.05 | 0.05 | 45 | 1012.4 |
| 20260507214938 | 16 | 268 | 8.0 | 12.9 | 0.00 | 0.05 | 0.05 | 44 | 1012.2 |
| 20260507214430 | 16 | 241 | 9.7 | 12.9 | 0.00 | 0.05 | 0.05 | 45 | 1012.3 |
| 20260507213925 | 16 | 261 | 4.8 | 4.8 | 0.00 | 0.05 | 0.05 | 44 | 1012.2 |
| 20260507213422 | 16 | 309 | 4.8 | 6.4 | 0.00 | 0.05 | 0.05 | 45 | 1012.1 |
| 20260507212919 | 16 | 309 | 3.2 | 11.3 | 0.00 | 0.05 | 0.05 | 42 | 1012.1 |
| 20260507212415 | 16 | 298 | 3.2 | 3.2 | 0.00 | 0.05 | 0.05 | 49 | 1012.1 |
| 20260507211912 | 15 | 336 | 3.2 | 4.8 | 0.00 | 0.05 | 0.05 | 46 | 1011.9 |
| 20260507211408 | 15 | 298 | 6.4 | 9.7 | 0.00 | 0.05 | 0.05 | 45 | 1012.0 |
| 20260507210905 | 15 | 288 | 6.4 | 9.7 | 0.00 | 0.05 | 0.05 | 42 | 1011.9 |
| 20260507210402 | 15 | 320 | 8.0 | 12.9 | 0.00 | 0.05 | 0.05 | 46 | 1011.9 |
| 20260507205858 | 15 | 282 | 9.7 | 11.3 | 0.00 | 0.05 | 0.05 | 45 | 1011.8 |
| 20260507205355 | 15 | 327 | 6.4 | 11.3 | 0.00 | 0.05 | 0.05 | 46 | 1011.6 |
| 20260507204852 | 15 | 298 | 6.4 | 12.9 | 0.00 | 0.05 | 0.05 | 45 | 1011.9 |
| 20260507204349 | 15 | 288 | 4.8 | 12.9 | 0.00 | 0.05 | 0.05 | 49 | 1011.8 |
| 20260507203846 | 15 | 288 | 3.2 | 9.7 | 0.00 | 0.05 | 0.05 | 48 | 1011.8 |
| 20260507203339 | 15 | 300 | 9.7 | 12.9 | 0.00 | 0.05 | 0.05 | 44 | 1011.7 |
| 20260507202835 | 15 | 312 | 3.2 | 6.4 | 0.00 | 0.05 | 0.05 | 46 | 1011.8 |
| 20260507202331 | 15 | 276 | 6.4 | 11.3 | 0.00 | 0.05 | 0.05 | 46 | 1011.9 |
| 20260507201827 | 15 | 259 | 8.0 | 11.3 | 0.00 | 0.05 | 0.05 | 45 | 1011.9 |
| 20260507201323 | 15 | 270 | 4.8 | 20.9 | 0.00 | 0.05 | 0.05 | 46 | 1011.9 |
| 20260507200819 | 16 | 252 | 11.3 | 16.1 | 0.00 | 0.05 | 0.05 | 47 | 1012.1 |
| 20260507200315 | 16 | 272 | 4.8 | 12.9 | 0.00 | 0.05 | 0.05 | 49 | 1012.1 |
| 20260507195811 | 15 | 296 | 8.0 | 9.7 | 0.00 | 0.05 | 0.05 | 47 | 1012.2 |
| 20260507195309 | 16 | 303 | 4.8 | 4.8 | 0.00 | 0.05 | 0.05 | 47 | 1012.1 |
| 20260507194806 | 15 | 248 | 3.2 | 12.9 | 0.00 | 0.05 | 0.05 | 50 | 1012.3 |
| 20260507194302 | 15 | 291 | 8.0 | 17.7 | 0.00 | 0.05 | 0.05 | 45 | 1012.4 |
| 20260507193759 | 16 | 281 | 3.2 | 9.7 | 0.00 | 0.05 | 0.05 | 49 | 1012.4 |
| 20260507193256 | 16 | 263 | 3.2 | 11.3 | 0.00 | 0.05 | 0.05 | 47 | 1012.3 |
| 20260507192751 | 16 | 259 | 8.0 | 16.1 | 0.00 | 0.05 | 0.05 | 50 | 1012.5 |
| 20260507192249 | 15 | 253 | 6.4 | 14.5 | 0.00 | 0.05 | 0.05 | 52 | 1012.4 |
| 20260507191745 | 15 | 303 | 4.8 | 6.4 | 0.00 | 0.05 | 0.05 | 51 | 1012.3 |
| 20260507191242 | 16 | 305 | 9.7 | 22.5 | 0.00 | 0.05 | 0.05 | 48 | 1012.4 |
| 20260507190738 | 16 | 310 | 9.7 | 11.3 | 0.00 | 0.05 | 0.05 | 50 | 1012.4 |
| 20260507190237 | 16 | 333 | 8.0 | 12.9 | 0.00 | 0.05 | 0.05 | 54 | 1012.5 |
| 20260507185735 | 16 | 316 | 1.6 | 6.4 | 0.00 | 0.05 | 0.05 | 53 | 1012.8 |
| 20260507185231 | 16 | 283 | 14.5 | 17.7 | 0.00 | 0.05 | 0.05 | 46 | 1012.5 |
| 20260507184729 | 16 | 288 | 3.2 | 6.4 | 0.00 | 0.05 | 0.05 | 53 | 1012.8 |
| 20260507184227 | 15 | 285 | 4.8 | 6.4 | 0.00 | 0.05 | 0.05 | 51 | 1012.7 |
| 20260507183723 | 14 | 256 | 3.2 | 4.8 | 0.00 | 0.05 | 0.05 | 53 | 1012.6 |
| 20260507183220 | 14 | 281 | 6.4 | 6.4 | 0.00 | 0.05 | 0.05 | 54 | 1012.8 |
| 20260507182718 | 14 | 276 | 4.8 | 4.8 | 0.00 | 0.05 | 0.05 | 54 | 1012.8 |
| 20260507182213 | 14 | 277 | 4.8 | 11.3 | 0.00 | 0.05 | 0.05 | 54 | 1012.8 |
| 20260507181710 | 14 | 278 | 6.4 | 12.9 | 0.00 | 0.05 | 0.05 | 55 | 1012.8 |
| 20260507181206 | 14 | 235 | 11.3 | 16.1 | 0.00 | 0.05 | 0.05 | 53 | 1012.7 |
| 20260507180703 | 15 | 284 | 8.0 | 11.3 | 0.00 | 0.05 | 0.05 | 50 | 1012.8 |
| 20260507180200 | 15 | 266 | 11.3 | 12.9 | 0.00 | 0.05 | 0.05 | 50 | 1012.9 |
| 20260507175655 | 16 | 262 | 3.2 | 3.2 | 0.00 | 0.05 | 0.05 | 53 | 1012.9 |
| 20260507175152 | 15 | 267 | 3.2 | 11.3 | 0.00 | 0.05 | 0.05 | 54 | 1012.9 |
| 20260507174649 | 15 | 263 | 6.4 | 12.9 | 0.00 | 0.05 | 0.05 | 54 | 1013.1 |
| 20260507174147 | 15 | 264 | 3.2 | 9.7 | 0.00 | 0.05 | 0.05 | 55 | 1012.8 |
| 20260507173645 | 14 | 283 | 3.2 | 6.4 | 0.00 | 0.05 | 0.05 | 58 | 1013.4 |
| 20260507173141 | 14 | 263 | 0.0 | 4.8 | 0.00 | 0.05 | 0.05 | 58 | 1013.1 |
| 20260507172637 | 14 | 266 | 4.8 | 6.4 | 0.00 | 0.05 | 0.05 | 59 | 1013.1 |
| 20260507172135 | 13 | 320 | 3.2 | 6.4 | 0.00 | 0.05 | 0.05 | 58 | 1013.2 |
| 20260507171635 | 14 | 320 | 4.8 | 11.3 | 0.00 | 0.05 | 0.05 | 61 | 1013.4 |
| 20260507171133 | 14 | 296 | 3.2 | 6.4 | 0.00 | 0.05 | 0.05 | 55 | 1013.1 |
| 20260507170630 | 15 | 244 | 4.8 | 6.4 | 0.00 | 0.05 | 0.05 | 57 | 1013.2 |
| 20260507170127 | 15 | 252 | 3.2 | 11.3 | 0.00 | 0.05 | 0.05 | 57 | 1013.5 |
| 20260507165622 | 15 | 293 | 9.7 | 11.3 | 0.00 | 0.05 | 0.05 | 56 | 1013.5 |
| 20260507165119 | 15 | 234 | 6.4 | 11.3 | 0.00 | 0.05 | 0.05 | 57 | 1013.6 |
| 20260507164614 | 15 | 261 | 8.0 | 9.7 | 0.00 | 0.05 | 0.05 | 57 | 1013.8 |
| 20260507164111 | 14 | 218 | 6.4 | 14.5 | 0.00 | 0.05 | 0.05 | 64 | 1013.9 |
| 20260507163609 | 13 | 283 | 9.7 | 17.7 | 0.00 | 0.05 | 0.05 | 62 | 1014.0 |
| 20260507163108 | 13 | 317 | 1.6 | 3.2 | 0.00 | 0.05 | 0.05 | 58 | 1014.0 |
| 20260507162607 | 13 | 309 | 6.4 | 11.3 | 0.00 | 0.05 | 0.05 | 64 | 1014.1 |
| 20260507162104 | 15 | 271 | 1.6 | 4.8 | 0.00 | 0.05 | 0.05 | 62 | 1014.1 |
| 20260507161600 | 14 | 237 | 3.2 | 3.2 | 0.00 | 0.05 | 0.05 | 61 | 1013.9 |
| 20260507161057 | 14 | 213 | 8.0 | 11.3 | 0.00 | 0.05 | 0.05 | 59 | 1014.0 |
| 20260507160554 | 13 | 307 | 8.0 | 9.7 | 0.00 | 0.05 | 0.05 | 65 | 1014.2 |
| 20260507160050 | 14 | 293 | 6.4 | 11.3 | 0.00 | 0.05 | 0.05 | 59 | 1014.1 |
| 20260507155545 | 14 | 262 | 4.8 | 9.7 | 0.00 | 0.05 | 0.05 | 59 | 1014.4 |
| 20260507155043 | 15 | 285 | 3.2 | 4.8 | 0.00 | 0.05 | 0.05 | 63 | 1014.4 |
| 20260507154539 | 14 | 267 | 4.8 | 4.8 | 0.00 | 0.05 | 0.05 | 60 | 1014.5 |
| 20260507154037 | 13 | 267 | 4.8 | 4.8 | 0.00 | 0.05 | 0.05 | 60 | 1014.3 |
| 20260507153533 | 14 | 276 | 4.8 | 9.7 | 0.00 | 0.05 | 0.05 | 57 | 1014.4 |
| 20260507153030 | 13 | 166 | 0.0 | 9.7 | 0.00 | 0.05 | 0.05 | 65 | 1014.3 |
| 20260507152525 | 13 | 93 | 1.6 | 6.4 | 0.00 | 0.05 | 0.05 | 61 | 1014.3 |
| 20260507152022 | 13 | 93 | 0.0 | 3.2 | 0.00 | 0.05 | 0.05 | 65 | 1014.4 |
| 20260507151518 | 12 | 93 | 3.2 | 4.8 | 0.00 | 0.05 | 0.05 | 60 | 1014.5 |
| 20260507151015 | 12 | 66 | 0.0 | 1.6 | 0.00 | 0.05 | 0.05 | 65 | 1014.6 |
| 20260507150512 | 12 | 66 | 3.2 | 6.4 | 0.00 | 0.05 | 0.05 | 62 | 1014.4 |
| 20260507150009 | 12 | 26 | 6.4 | 6.4 | 0.00 | 0.05 | 0.05 | 63 | 1014.6 |
| 20260507145504 | 12 | 352 | 1.6 | 3.2 | 0.00 | 0.05 | 0.05 | 68 | 1014.6 |
| 20260507145001 | 12 | 4 | 3.2 | 4.8 | 0.00 | 0.05 | 0.05 | 69 | 1014.5 |
| 20260507144458 | 12 | 4 | 1.6 | 3.2 | 0.00 | 0.05 | 0.05 | 69 | 1014.8 |
| 20260507143955 | 12 | 4 | 0.0 | 0.0 | 0.00 | 0.05 | 0.05 | 73 | 1014.7 |
| 20260507143453 | 11 | 4 | 3.2 | 4.8 | 0.00 | 0.05 | 0.05 | 72 | 1014.7 |
| 20260507142949 | 11 | 4 | 3.2 | 3.2 | 0.00 | 0.05 | 0.05 | 73 | 1014.9 |
| 20260507142445 | 11 | 4 | 1.6 | 3.2 | 0.00 | 0.05 | 0.05 | 71 | 1015.1 |
| 20260507141943 | 11 | 313 | 4.8 | 4.8 | 0.00 | 0.05 | 0.05 | 75 | 1014.9 |
| 20260507141438 | 12 | 305 | 0.0 | 3.2 | 0.00 | 0.05 | 0.05 | 74 | 1015.0 |
| 20260507140935 | 12 | 305 | 1.6 | 1.6 | 0.00 | 0.05 | 0.05 | 81 | 1015.1 |
| 20260507140432 | 11 | 305 | 0.0 | 1.6 | 0.00 | 0.05 | 0.05 | 83 | 1015.0 |
| 20260507135930 | 11 | 302 | 1.6 | 3.2 | 0.00 | 0.05 | 0.05 | 84 | 1015.0 |
| 20260507135426 | 11 | 301 | 3.2 | 9.7 | 0.00 | 0.05 | 0.05 | 83 | 1015.2 |
| 20260507134924 | 11 | 346 | 0.0 | 1.6 | 0.00 | 0.05 | 0.05 | 84 | 1015.1 |
| 20260507134420 | 11 | 346 | 1.6 | 3.2 | 0.00 | 0.05 | 0.05 | 85 | 1015.3 |
| 20260507133916 | 11 | 346 | 0.0 | 1.6 | 0.00 | 0.05 | 0.05 | 86 | 1015.1 |
| 20260507133412 | 11 | 346 | 0.0 | 1.6 | 0.00 | 0.05 | 0.05 | 87 | 1015.3 |
| 20260507132911 | 11 | 346 | 1.6 | 1.6 | 0.00 | 0.05 | 0.05 | 88 | 1015.5 |
| 20260507132407 | 10 | 346 | 0.0 | 0.0 | 0.00 | 0.05 | 0.05 | 89 | 1015.2 |
| 20260507131905 | 10 | 346 | 0.0 | 0.0 | 0.00 | 0.05 | 0.05 | 90 | 1015.3 |
| 20260507131400 | 10 | 346 | 0.0 | 0.0 | 0.00 | 0.05 | 0.05 | 91 | 1015.4 |
| 20260507130857 | 10 | 346 | 1.6 | 1.6 | 0.00 | 0.05 | 0.05 | 92 | 1015.4 |
| 20260507130354 | 10 | 346 | 0.0 | 0.0 | 0.00 | 0.05 | 0.05 | 93 | 1015.4 |
| 20260507125853 | 10 | 346 | 0.0 | 1.6 | 0.00 | 0.05 | 0.05 | 96 | 1015.4 |
| 20260507125350 | 10 | 346 | 1.6 | 1.6 | 0.00 | 0.05 | 0.05 | 97 | 1015.6 |
| 20260507124848 | 9 | 346 | 0.0 | 0.0 | 0.00 | 0.05 | 0.05 | 98 | 1015.5 |
| 20260507124343 | 9 | 346 | 0.0 | 0.0 | 0.00 | 0.05 | 0.05 | 99 | 1015.4 |
| 20260507123843 | 9 | 346 | 0.0 | 0.0 | 0.00 | 0.05 | 0.05 | 99 | 1015.5 |
| 20260507123339 | 9 | 346 | 0.0 | 0.0 | 0.00 | 0.05 | 0.05 | 99 | 1015.3 |
| 20260507122835 | 9 | 346 | 0.0 | 0.0 | 0.00 | 0.05 | 0.05 | 99 | 1015.5 |
| 20260507122331 | 9 | 346 | 0.0 | 3.2 | 0.00 | 0.05 | 0.05 | 99 | 1015.3 |
| 20260507121827 | 9 | 346 | 0.0 | 0.0 | 0.00 | 0.05 | 0.05 | 99 | 1015.4 |
| 20260507121323 | 9 | 346 | 0.0 | 0.0 | 0.00 | 0.05 | 0.05 | 99 | 1015.3 |
| 20260507120820 | 9 | 346 | 0.0 | 0.0 | 0.00 | 0.05 | 0.05 | 99 | 1015.4 |
| 20260507120316 | 9 | 346 | 0.0 | 0.0 | 0.00 | 0.05 | 0.05 | 99 | 1015.5 |
| 20260507115812 | 9 | 346 | 0.0 | 0.0 | 0.00 | 0.05 | 0.05 | 99 | 1015.5 |
| 20260507115308 | 9 | 346 | 0.0 | 1.6 | 0.00 | 0.05 | 0.05 | 99 | 1015.6 |
| 20260507114804 | 9 | 346 | 0.0 | 1.6 | 0.00 | 0.05 | 0.05 | 99 | 1015.3 |
| 20260507114301 | 9 | 346 | 1.6 | 1.6 | 0.00 | 0.05 | 0.05 | 99 | 1015.3 |
| 20260507113759 | 9 | 346 | 0.0 | 1.6 | 0.00 | 0.05 | 0.05 | 99 | 1015.1 |
| 20260507113255 | 9 | 346 | 0.0 | 0.0 | 0.00 | 0.05 | 0.05 | 99 | 1015.2 |
| 20260507112753 | 9 | 346 | 0.0 | 0.0 | 0.00 | 0.05 | 0.05 | 99 | 1015.1 |
| 20260507112250 | 9 | 346 | 0.0 | 0.0 | 0.00 | 0.05 | 0.05 | 99 | 1014.9 |
| 20260507111748 | 9 | 346 | 0.0 | 0.0 | 0.00 | 0.05 | 0.05 | 99 | 1015.1 |
| 20260507111244 | 9 | 346 | 0.0 | 0.0 | 0.00 | 0.05 | 0.05 | 99 | 1015.0 |
| 20260507110740 | 8 | 346 | 0.0 | 0.0 | 0.00 | 0.05 | 0.05 | 99 | 1014.7 |
| 20260507110237 | 8 | 346 | 0.0 | 0.0 | 0.00 | 0.05 | 0.05 | 99 | 1014.7 |
| 20260507105734 | 8 | 346 | 0.0 | 0.0 | 0.00 | 0.05 | 0.05 | 99 | 1014.6 |
| 20260507105230 | 8 | 346 | 0.0 | 0.0 | 0.00 | 0.05 | 0.05 | 99 | 1014.5 |
| 20260507104727 | 8 | 346 | 0.0 | 0.0 | 0.00 | 0.05 | 0.05 | 99 | 1014.7 |
| 20260507104224 | 8 | 346 | 0.0 | 0.0 | 0.00 | 0.05 | 0.05 | 99 | 1014.5 |
| 20260507103720 | 8 | 346 | 0.0 | 0.0 | 0.00 | 0.05 | 0.05 | 99 | 1014.6 |
| 20260507103216 | 8 | 346 | 0.0 | 0.0 | 0.00 | 0.05 | 0.05 | 99 | 1014.4 |
| 20260507102713 | 8 | 346 | 0.0 | 0.0 | 0.00 | 0.05 | 0.05 | 99 | 1014.5 |
| 20260507102209 | 8 | 346 | 0.0 | 0.0 | 0.00 | 0.05 | 0.05 | 99 | 1014.5 |
| 20260507101705 | 8 | 346 | 0.0 | 0.0 | 0.00 | 0.05 | 0.05 | 99 | 1014.6 |
| 20260507101201 | 8 | 346 | 0.0 | 0.0 | 0.00 | 0.05 | 0.05 | 99 | 1014.5 |
| 20260507100658 | 8 | 346 | 0.0 | 0.0 | 0.00 | 0.05 | 0.05 | 99 | 1014.7 |
| 20260507100157 | 8 | 346 | 0.0 | 0.0 | 0.00 | 0.05 | 0.05 | 99 | 1014.4 |
| 20260507095654 | 8 | 346 | 0.0 | 0.0 | 0.00 | 0.05 | 0.05 | 99 | 1014.6 |
| 20260507095151 | 8 | 346 | 0.0 | 0.0 | 0.00 | 0.05 | 0.05 | 99 | 1014.5 |
| 20260507094647 | 8 | 346 | 0.0 | 0.0 | 0.00 | 0.05 | 0.05 | 99 | 1014.4 |
| 20260507094144 | 8 | 346 | 0.0 | 0.0 | 0.00 | 0.05 | 0.05 | 99 | 1014.4 |
| 20260507093641 | 8 | 346 | 0.0 | 0.0 | 0.00 | 0.05 | 0.05 | 99 | 1014.5 |
| 20260507093141 | 8 | 346 | 0.0 | 0.0 | 0.00 | 0.05 | 0.05 | 99 | 1014.2 |
| 20260507092636 | 8 | 346 | 0.0 | 0.0 | 0.00 | 0.05 | 0.05 | 99 | 1014.4 |
| 20260507092133 | 8 | 346 | 0.0 | 0.0 | 0.00 | 0.05 | 0.05 | 99 | 1014.2 |
| 20260507091629 | 8 | 346 | 0.0 | 0.0 | 0.00 | 0.05 | 0.05 | 99 | 1014.3 |
| 20260507091125 | 8 | 346 | 0.0 | 0.0 | 0.00 | 0.05 | 0.05 | 99 | 1014.3 |
| 20260507090621 | 8 | 346 | 0.0 | 0.0 | 0.00 | 0.05 | 0.05 | 99 | 1014.3 |
| 20260507090119 | 8 | 346 | 0.0 | 0.0 | 0.00 | 0.05 | 0.05 | 99 | 1014.3 |
| 20260507085616 | 8 | 346 | 0.0 | 0.0 | 0.00 | 0.05 | 0.05 | 99 | 1014.0 |
| 20260507085112 | 8 | 346 | 0.0 | 0.0 | 0.00 | 0.05 | 0.05 | 99 | 1014.3 |
| 20260507084609 | 8 | 346 | 0.0 | 0.0 | 0.00 | 0.05 | 0.05 | 99 | 1014.4 |
| 20260507084106 | 8 | 346 | 0.0 | 0.0 | 0.00 | 0.05 | 0.05 | 99 | 1014.5 |
| 20260507083602 | 8 | 346 | 0.0 | 0.0 | 0.00 | 0.05 | 0.05 | 99 | 1014.3 |
| 20260507083100 | 8 | 346 | 0.0 | 0.0 | 0.00 | 0.05 | 0.05 | 99 | 1014.5 |
| 20260507082555 | 8 | 346 | 0.0 | 0.0 | 0.00 | 0.05 | 0.05 | 99 | 1014.6 |
| 20260507082052 | 8 | 346 | 0.0 | 0.0 | 0.00 | 0.05 | 0.05 | 99 | 1014.5 |
| 20260507081548 | 8 | 346 | 0.0 | 0.0 | 0.00 | 0.05 | 0.05 | 99 | 1014.3 |
| 20260507081045 | 8 | 346 | 0.0 | 0.0 | 0.00 | 0.05 | 0.05 | 99 | 1014.4 |
| 20260507080541 | 8 | 346 | 0.0 | 0.0 | 0.00 | 0.05 | 0.05 | 99 | 1014.2 |
| 20260507080038 | 8 | 346 | 0.0 | 0.0 | 0.00 | 0.05 | 0.05 | 99 | 1014.2 |
| 20260507075533 | 8 | 346 | 0.0 | 0.0 | 0.00 | 0.05 | 0.05 | 99 | 1014.3 |
| 20260507075030 | 8 | 346 | 0.0 | 0.0 | 0.00 | 0.05 | 0.05 | 99 | 1014.4 |
| 20260507074526 | 8 | 346 | 0.0 | 0.0 | 0.00 | 0.05 | 0.05 | 99 | 1014.5 |
| 20260507074025 | 8 | 346 | 1.6 | 1.6 | 0.00 | 0.05 | 0.05 | 98 | 1014.5 |
| 20260507073521 | 8 | 346 | 1.6 | 1.6 | 0.00 | 0.05 | 0.05 | 98 | 1014.4 |